ECMWFNIL_700_spd_162.txt.gz
Wind_Speed
38 36 35 38 37 42 56 57 47 42 40 38 38 37 34 32 30 30 31 32 32 31 32 33 33 33 33 33 34 34 33 32 31 30 28 27 25 23 22 21 20 19
37 38 36 36 36 39 52 60 52 44 41 39 38 36 35 33 31 31 32 31 31 31 31 32 32 32 33 33 34 35 34 33 32 31 30 28 27 25 23 21 21 20
36 39 38 37 37 38 47 58 57 50 46 42 38 35 35 34 31 31 31 30 29 29 29 30 31 32 32 33 35 36 35 34 32 31 31 30 28 26 23 22 21 21
36 38 39 36 35 37 44 54 60 60 55 48 40 35 34 33 32 32 31 30 29 28 28 29 30 32 33 33 35 36 35 35 34 33 32 31 30 27 25 24 22 21
36 37 37 36 35 37 41 46 54 60 61 55 44 37 35 33 32 32 30 29 28 26 26 28 30 32 33 34 35 36 36 36 36 35 34 33 31 29 27 25 23 21
37 37 38 38 38 40 40 40 42 48 54 58 51 40 36 35 33 32 30 28 27 26 26 27 29 31 32 34 35 36 37 37 37 36 35 34 33 31 29 27 24 22
37 38 40 40 42 46 48 43 41 39 42 51 56 47 39 38 37 34 31 29 27 26 26 26 27 29 31 33 35 36 37 37 38 37 36 35 35 33 31 28 26 24
37 38 42 43 45 49 48 42 41 41 39 44 53 53 46 43 41 37 32 28 29 29 27 26 27 28 29 31 33 35 36 37 38 38 37 37 37 35 33 31 28 26
38 39 43 46 47 47 44 40 40 43 43 43 47 51 52 51 47 41 33 30 33 31 26 25 26 27 30 31 32 34 35 37 38 39 39 39 38 37 35 33 31 28
39 40 43 46 47 45 45 44 42 42 42 43 44 46 51 55 53 47 40 38 39 34 26 25 26 27 31 32 32 33 34 36 38 39 40 40 40 39 38 36 33 31
38 39 42 45 47 47 48 47 44 41 39 40 42 43 46 53 56 53 48 45 44 40 33 29 28 28 30 33 34 34 34 35 37 39 39 40 41 41 40 38 36 33
40 40 41 43 46 48 51 50 44 40 37 37 40 42 42 50 58 58 54 51 49 46 40 35 33 31 31 33 35 35 36 36 36 38 39 39 41 42 42 41 39 36
41 43 42 42 46 49 53 52 46 39 37 37 40 43 43 48 57 61 61 59 54 50 45 41 40 37 35 35 36 36 37 37 37 37 38 39 40 42 43 42 42 40
38 42 44 42 43 47 52 55 51 45 42 40 41 44 46 49 54 60 64 64 60 54 49 46 46 45 40 39 39 37 37 38 38 38 38 38 39 42 43 44 44 43
37 40 43 40 39 44 49 54 56 51 46 43 42 44 46 49 53 56 58 61 61 56 49 44 45 49 47 43 41 40 39 38 39 40 39 38 38 40 43 44 45 44
38 40 40 37 36 41 46 51 55 53 48 45 42 43 45 48 52 52 50 51 52 47 43 39 39 45 48 46 43 42 41 39 39 40 40 40 39 39 41 44 45 45
38 38 39 37 34 37 42 46 51 53 51 47 44 44 45 45 48 49 45 44 44 42 43 42 39 40 44 48 47 46 44 43 42 41 41 41 41 40 40 42 45 45
35 34 38 38 34 34 37 40 45 48 48 46 44 45 46 44 45 45 43 44 46 46 46 43 40 38 39 45 49 48 44 42 42 43 43 43 43 42 40 41 43 45
30 32 36 37 36 37 38 39 43 45 44 42 41 41 43 42 42 43 43 44 46 47 45 42 40 38 36 40 46 48 45 42 42 43 44 45 45 44 42 42 43 44
26 30 35 37 39 41 41 41 43 43 42 40 37 37 38 38 39 40 42 43 43 43 42 40 37 34 33 36 43 47 47 46 46 45 44 45 47 47 47 46 45 45
22 25 29 33 36 38 38 39 40 38 37 36 35 35 36 36 37 38 40 42 43 43 43 41 38 33 31 33 37 41 44 47 50 49 46 47 49 50 51 51 48 47
21 20 22 25 27 29 31 35 37 35 34 35 36 36 37 38 39 39 39 41 43 45 45 44 42 39 36 35 37 40 44 49 52 50 47 47 49 50 52 53 51 49
24 22 21 21 21 25 29 33 34 34 35 37 37 37 37 38 39 39 40 41 43 46 47 46 45 44 44 44 44 46 49 51 50 47 45 45 45 44 45 49 51 50
28 26 24 22 22 23 26 28 30 32 35 37 38 38 38 38 38 39 42 44 44 45 47 47 48 47 47 48 48 48 49 49 46 44 42 41 41 40 40 43 46 46
32 31 29 27 25 25 25 25 26 28 32 35 37 39 40 40 41 41 42 44 45 45 45 46 47 48 48 49 48 46 47 47 46 45 42 38 39 40 40 42 42 42
36 35 34 32 31 29 28 27 27 27 29 32 33 35 37 40 41 41 42 43 44 45 46 46 46 46 47 47 46 46 46 46 46 46 43 39 37 39 40 41 41 41

ECMWFNIL_700_spd_168.txt.gz
Wind_Speed
35 35 35 36 38 37 38 41 41 44 46 47 48 43 37 37 40 44 47 44 40 40 39 40 39 38 37 37 37 37 35 33 33 33 33 32 32 31 31 31 29 28
34 35 36 36 36 37 40 41 40 43 47 48 49 46 40 39 42 46 49 46 42 39 38 39 40 39 37 36 37 38 37 34 33 34 34 33 33 32 32 32 31 29
34 35 36 35 35 38 41 42 40 40 42 45 48 47 44 44 46 49 51 49 45 41 38 37 39 40 38 37 38 39 38 35 33 34 35 34 33 32 32 32 32 30
34 35 36 35 34 37 39 41 42 40 38 41 45 47 48 48 50 52 53 50 46 42 38 36 37 40 40 39 39 39 38 36 34 34 35 35 34 33 33 33 33 32
33 34 35 35 35 37 38 40 43 41 38 40 44 48 52 53 50 52 54 51 46 41 38 36 36 39 41 41 40 40 40 38 36 35 36 35 34 34 33 33 34 33
31 33 33 35 37 37 39 41 43 44 42 41 44 49 54 54 51 50 51 50 47 42 39 38 38 39 41 41 41 41 41 40 38 37 36 35 35 35 35 35 35 35
31 31 32 35 37 37 39 41 43 46 45 42 44 49 53 53 50 48 44 42 42 42 41 40 41 41 41 41 42 42 43 42 39 38 36 35 36 36 36 36 37 36
31 32 32 34 36 37 38 38 40 44 45 45 44 45 50 51 48 45 42 39 39 39 41 42 41 42 42 43 44 44 43 42 40 38 38 38 38 38 37 37 38 38
30 31 33 35 36 37 38 38 39 42 44 47 46 44 47 48 46 45 44 42 40 39 40 41 40 40 42 41 41 42 42 41 39 39 39 39 39 39 39 39 39 39
29 30 32 35 36 37 39 39 40 42 43 46 48 46 46 45 44 45 45 43 43 41 41 40 37 36 38 39 37 38 40 40 38 38 39 39 40 40 40 40 40 40
28 29 30 33 35 38 40 40 40 43 44 46 47 47 46 43 40 43 45 45 43 41 42 43 40 37 37 37 36 35 36 37 37 37 38 38 38 39 41 42 42 41
27 28 29 31 34 38 41 41 40 42 44 44 42 42 44 41 40 42 44 44 43 43 44 44 45 44 40 34 34 35 36 36 36 37 38 37 37 37 38 40 42 42
27 27 28 30 33 37 41 43 42 41 42 41 40 41 42 40 40 43 43 43 44 44 46 46 47 50 45 36 32 33 34 35 35 35 37 37 37 37 38 41 43 43
27 27 28 29 32 36 40 42 42 40 38 38 39 42 43 41 40 42 42 43 43 43 46 48 48 50 50 43 36 34 34 34 34 34 36 36 37 37 38 41 43 44
28 28 29 29 30 35 39 40 41 39 36 36 35 36 40 41 42 42 41 41 41 41 44 48 49 51 53 51 45 40 38 38 36 35 36 37 38 39 39 40 42 44
30 30 29 28 29 33 38 39 39 37 34 34 35 36 38 38 40 42 43 43 43 42 44 47 49 52 54 54 51 44 40 41 40 38 37 37 38 38 39 40 41 43
32 31 29 28 28 31 35 39 39 36 34 34 35 36 35 35 38 41 44 46 47 47 46 46 48 50 51 53 55 49 41 41 44 41 36 35 36 36 36 36 37 40
33 32 30 29 28 29 33 37 36 33 34 34 33 33 32 34 36 40 43 47 49 50 49 47 48 49 47 48 53 52 44 42 45 45 39 36 35 36 35 34 34 37
34 34 32 29 27 27 30 32 31 30 34 34 29 28 31 34 37 38 39 42 47 51 51 49 49 49 45 42 45 49 48 47 48 49 46 43 41 39 38 37 35 36
35 34 33 29 26 25 27 29 28 28 31 33 30 27 28 32 36 37 36 36 40 44 46 47 47 46 44 43 44 47 51 54 55 54 53 52 51 49 46 44 42 39
34 33 33 30 25 23 23 26 26 25 25 28 30 29 27 27 30 33 34 34 35 37 39 40 41 41 41 43 45 48 52 57 58 58 58 57 57 57 55 53 51 48
32 32 32 30 26 23 22 23 24 24 23 23 25 27 26 26 28 30 32 33 33 33 35 36 37 39 41 43 45 47 50 53 55 57 59 60 59 58 57 58 59 58
31 32 32 30 27 25 23 22 22 21 21 20 20 24 25 27 29 30 30 32 32 33 35 37 38 39 40 44 47 48 48 46 46 52 58 60 59 54 50 50 53 56
29 31 32 30 28 25 23 23 22 21 20 18 17 21 25 28 30 30 30 31 32 34 36 37 38 38 38 41 45 48 47 44 43 47 52 55 55 53 48 45 46 48
25 28 29 29 28 26 24 23 22 22 22 19 17 17 21 26 29 29 28 31 32 33 34 33 32 33 34 37 40 41 41 41 42 46 50 51 51 52 51 49 48 47
21 24 26 28 28 28 26 25 24 23 22 21 19 18 17 20 25 26 25 27 29 30 30 28 25 25 26 27 31 35 36 36 38 43 47 48 49 50 50 49 50 49

ECMWFNIL_700_spd_174.txt.gz
Wind_Speed
41 41 43 43 43 43 42 42 42 42 42 43 42 42 41 40 38 37 37 36 34 32 31 32 37 42 48 49 46 44 42 39 38 38 39 39 38 38 37 35 34 33
41 41 42 44 45 45 45 44 43 43 44 44 44 43 42 42 42 41 41 40 38 36 34 35 37 39 44 48 48 47 46 44 40 39 40 40 40 40 40 39 37 36
41 42 42 44 45 46 46 46 45 45 45 45 45 43 43 43 44 44 44 43 41 40 38 38 40 40 41 44 48 50 51 49 44 41 41 41 41 42 42 41 40 39
41 43 43 44 46 47 47 47 47 47 46 46 46 46 45 45 45 46 47 46 44 43 41 41 42 43 43 42 46 51 55 52 47 43 42 42 42 42 42 42 42 41
39 42 44 45 46 47 47 48 48 48 48 47 47 47 46 46 47 48 48 49 48 46 45 44 44 46 46 44 45 49 55 55 49 44 42 42 43 42 41 41 42 42
36 40 44 46 46 46 47 47 47 48 49 48 48 49 48 46 47 48 49 50 50 49 48 46 46 47 48 47 46 47 51 54 51 45 43 41 42 42 41 41 41 42
35 37 42 45 46 46 47 47 46 47 49 49 49 50 49 47 47 47 48 49 50 50 50 48 46 47 48 48 48 46 48 51 50 48 46 43 41 41 43 42 41 42
36 36 39 43 46 47 47 46 46 45 46 48 49 50 50 49 48 48 48 49 49 49 50 49 47 47 49 49 46 44 45 49 50 50 50 47 42 40 42 44 43 41
37 37 38 42 45 46 45 45 46 45 44 45 47 49 50 49 48 48 49 49 48 48 48 48 48 48 49 49 46 44 45 48 49 51 53 52 46 41 42 44 45 43
35 37 38 40 43 45 45 44 44 43 43 44 45 47 49 49 49 48 49 49 48 47 46 47 48 49 49 50 49 47 47 48 48 50 53 54 50 45 43 45 45 44
31 34 37 38 41 45 46 43 42 42 42 42 42 43 45 48 48 48 49 50 49 48 46 46 48 49 49 49 49 49 48 48 48 48 49 53 53 48 45 45 46 44
27 30 33 36 40 46 47 43 40 41 41 41 39 39 41 44 46 47 48 49 50 49 47 46 47 48 48 48 48 48 48 48 47 46 46 50 53 51 48 47 47 45
22 26 29 33 40 47 48 44 40 40 41 40 37 37 39 41 43 45 45 47 49 49 48 46 45 48 50 49 47 47 47 46 45 44 43 44 47 51 52 52 51 48
20 23 28 33 40 47 47 43 41 41 41 39 36 36 38 39 40 42 43 45 46 47 47 45 44 46 49 50 48 46 46 46 46 45 45 44 45 47 52 54 54 51
19 21 27 32 39 44 44 41 40 41 41 39 36 35 35 35 37 39 40 43 45 46 46 45 43 44 47 50 49 47 46 45 44 45 46 46 46 46 48 53 56 52
19 20 24 32 39 42 42 40 39 38 38 36 34 33 33 32 33 35 37 41 44 45 45 43 42 43 45 47 49 47 45 43 42 44 45 45 45 46 47 53 57 54
19 20 23 31 38 41 41 40 37 36 35 33 31 31 30 30 31 34 36 38 41 43 44 42 42 42 43 44 45 45 44 43 42 44 45 45 44 44 46 52 55 53
20 19 22 28 37 42 43 41 38 36 35 32 30 29 27 27 29 32 35 37 39 42 43 42 42 42 42 42 43 43 43 43 44 44 44 43 41 41 44 50 52 50
24 19 20 25 34 42 45 43 38 36 35 33 30 29 27 27 27 29 33 35 37 40 42 43 42 42 44 44 42 43 43 44 45 44 43 42 40 39 42 46 48 47
29 23 19 22 30 38 42 42 39 38 37 35 33 31 30 29 28 28 30 31 34 38 41 43 42 42 45 45 42 43 45 45 46 47 45 43 42 40 40 42 45 46
30 27 22 20 25 32 38 40 40 40 39 38 36 34 33 32 30 29 29 30 32 35 39 42 43 43 45 45 42 43 45 46 47 49 48 46 44 41 41 42 43 46
26 28 27 23 22 27 33 39 41 41 41 40 40 38 37 35 33 31 30 30 31 33 36 39 41 43 44 44 43 43 42 43 45 49 49 48 46 44 43 43 42 43
25 26 27 27 25 24 28 34 39 41 42 42 41 41 40 37 35 33 32 31 32 33 34 35 38 41 43 44 44 42 39 39 42 45 46 46 45 43 42 41 41 39
27 27 27 28 28 26 25 28 33 38 42 43 43 42 41 39 36 34 33 33 33 33 32 32 34 37 41 43 42 39 37 38 39 41 42 42 42 41 41 40 39 35
28 28 28 27 27 28 28 26 28 32 37 41 43 43 42 40 38 35 34 33 32 31 30 30 30 32 37 40 38 35 35 38 39 40 41 41 41 41 41 39 35 31
28 29 29 28 27 28 28 27 26 27 31 36 39 42 43 41 38 37 34 32 31 29 28 28 28 29 34 37 35 32 33 37 38 38 37 38 40 40 39 36 32 29

ECMWFNIL_700_spd_180.txt.gz
Wind_Speed
37 38 38 38 38 38 38 39 40 40 39 41 42 42 42 42 42 42 42 43 44 46 47 48 48 48 47 47 47 48 47 47 49 56 60 57 54 51 47 44 42 39
37 37 37 37 38 38 39 39 40 41 40 40 42 43 43 43 44 44 44 44 44 45 47 48 50 50 50 50 50 51 52 50 47 50 55 58 60 57 52 49 46 43
35 35 35 36 37 38 39 39 39 40 41 41 42 43 43 44 45 45 46 47 46 45 46 48 49 50 50 51 52 53 54 54 52 51 52 56 60 59 56 54 52 48
32 32 33 33 35 37 38 39 40 40 40 40 41 42 43 44 45 46 47 48 48 47 46 47 48 49 49 50 52 53 54 54 53 53 53 54 57 59 59 58 56 52
30 30 31 31 32 34 36 38 40 40 40 39 40 42 42 43 45 47 48 48 50 50 48 48 48 48 49 49 50 52 54 54 53 52 53 53 54 58 60 60 58 55
28 29 30 31 31 32 34 36 38 40 41 40 39 40 41 42 44 46 48 49 50 51 51 50 49 49 49 49 49 50 52 53 53 52 53 54 54 56 58 59 59 57
28 27 28 29 30 31 32 34 36 39 40 41 40 39 40 41 42 44 47 49 50 52 53 52 50 49 49 49 49 50 50 52 53 52 53 53 53 54 54 55 57 59
29 28 27 28 29 30 31 32 34 36 38 40 41 40 40 41 42 43 46 48 51 52 53 54 53 51 50 50 50 51 51 52 52 52 52 52 52 53 53 52 55 59
31 30 28 27 28 30 31 31 32 33 35 37 40 41 41 42 43 44 45 47 50 52 53 54 54 52 51 50 51 51 52 53 53 53 52 52 52 53 54 52 54 57
32 31 29 27 27 29 31 30 30 30 31 34 36 39 41 42 43 44 45 46 49 51 53 53 54 53 52 52 51 51 52 54 55 55 54 53 52 53 54 54 53 54
31 31 30 28 27 28 29 30 30 29 29 30 33 36 39 42 43 44 45 46 47 50 52 52 53 53 52 52 52 51 51 53 55 56 57 57 55 55 56 55 54 53
30 30 30 29 29 28 28 29 30 30 29 29 30 33 36 39 41 43 45 46 46 47 50 52 51 52 52 52 52 50 50 52 53 54 56 57 57 56 57 57 57 55
29 29 29 30 30 30 28 28 28 29 29 29 29 30 32 34 37 40 42 45 44 42 45 49 49 49 51 52 50 49 48 50 51 52 54 55 56 56 56 57 58 58
28 28 29 30 30 31 30 29 27 28 29 30 29 29 30 30 32 36 38 41 43 40 39 44 46 46 47 48 48 48 47 49 50 50 52 54 55 55 55 56 57 58
27 28 28 29 31 31 31 30 29 27 28 29 29 29 29 28 28 32 35 38 40 39 37 38 42 44 44 44 45 47 47 47 48 48 49 52 54 54 54 55 56 56
27 28 29 30 31 31 31 31 29 29 28 27 28 29 28 27 26 29 32 35 37 38 38 37 39 41 41 41 43 46 46 46 46 46 46 48 50 50 51 52 53 54
28 29 30 31 31 31 32 31 30 30 29 28 28 28 28 27 25 26 29 33 35 37 38 38 39 40 40 39 41 43 45 44 44 45 45 46 47 48 48 48 50 52
30 30 31 31 32 31 32 32 32 31 30 29 28 28 28 27 25 24 27 31 34 36 38 39 40 39 39 38 39 41 42 42 42 44 44 45 46 47 48 48 47 48
31 31 32 32 32 32 32 32 33 33 32 30 29 28 28 28 26 24 24 28 33 36 38 41 42 39 36 36 37 38 39 39 40 41 42 43 44 45 47 48 47 47
32 33 33 33 33 33 32 32 33 33 32 31 29 28 28 28 27 26 24 26 31 35 39 42 42 38 35 35 36 36 36 36 37 38 39 41 42 44 45 46 46 47
33 34 34 35 35 34 32 32 32 31 32 31 30 28 28 28 28 27 26 25 28 32 37 42 42 38 35 35 36 35 34 35 36 37 37 38 39 41 43 44 44 45
34 35 35 36 35 34 32 31 31 30 30 30 29 28 28 28 28 28 28 27 28 31 35 39 42 40 37 37 37 36 35 35 36 36 37 38 39 40 41 42 43 44
35 35 35 35 34 33 32 30 30 30 30 29 28 28 28 28 28 28 28 29 29 31 34 37 40 41 40 39 38 38 37 37 36 36 36 38 38 39 40 41 42 43
33 33 33 33 33 32 32 31 31 30 30 29 27 26 27 27 28 28 29 30 31 32 34 36 37 40 42 41 40 40 40 38 37 36 36 37 37 38 39 41 42 43
32 31 31 31 31 32 32 32 32 31 30 28 27 25 25 26 27 27 27 30 32 34 36 37 37 38 43 44 42 42 42 41 39 37 36 35 35 36 38 40 42 43
31 31 31 30 30 31 31 32 31 30 29 28 27 26 26 26 27 28 28 30 32 35 37 39 39 38 42 46 46 45 44 43 41 39 37 36 36 37 38 40 41 42